Location: Casalecchio di Reno
(44.4760°N, 11.2757°E)
Time: 10:10:58
(UTC+02:00)

AO-73 - Pass Details

Date: 24 June 2024
Orbit: 555 x 624 km, 97.7° (Epoch: 17 July)

Event Time Altitude Azimuth Distance (km) Brightness Sun altitude
Rises 03:45:09 0° 23° (NNE) 2,748 ? -14.2°
Reaches altitude 10° 03:47:31 10° 35° (NE) 1,848 ? -13.9°
Maximum altitude 03:50:59 28° 96° (E) 1,060 ? -13.6°
Drops below altitude 10° 03:54:27 10° 156° (SSE) 1,844 ? -13.2°
Enters shadow 03:55:21 - 162° (SSE) 2,175 ? -13.1°
